Bellingham, Washington, United States (98225)
Lat: 48.76N, Lon: 122.49W
Wx Zone: WAZ503
Local Info
Past Weather Observations for Wednesday, April 22, 2015

NOTE: This archive is for the closest National Weather Service station to Bellingham. Information may differ from the station used for current weather conditions.

Click here for Long-term Archive

Time Weather Temperature Dewpoint Humidity Pressure Winds Precip Visibility
23:53
Overcast
48°F / 9°C 30°F / -1°C 50% 30.01 in
(1016 mb)
S 8.1 mph
(S 13 kph)
- 10SM
22:53
Overcast
48°F / 9°C 32°F / 0°C 54% 30.04 in
(1017 mb)
S 8.1 mph
(S 13 kph)
- 10SM
21:53
Partly Cloudy
50°F / 10°C 30°F / -1°C 47% 30.04 in
(1017 mb)
SE 10.4 mph
(SE 17 kph)
- 10SM
20:53
Clear
48°F / 9°C 36°F / 2°C 62% 30.04 in
(1017 mb)
S 5.8 mph
(S 9 kph)
- 10SM
19:53
Clear
50°F / 10°C 36°F / 2°C 58% 30.04 in
(1017 mb)
SSE 8.1 mph
(SSE 13 kph)
- 10SM
18:53
Clear
52°F / 11°C 36°F / 2°C 54% 30.06 in
(1018 mb)
SSE 9.2 mph
(SSE 15 kph)
- 10SM
17:53
Clear
54°F / 12°C 36°F / 2°C 51% 30.06 in
(1018 mb)
S 11.5 mph
(S 19 kph)
- 10SM
16:53
Clear
54°F / 12°C 36°F / 2°C 51% 30.09 in
(1019 mb)
S 10.4 mph
(S 17 kph)
- 10SM
15:53
Clear
55°F / 13°C 34°F / 1°C 44% 30.12 in
(1020 mb)
SSE 12.7 mph
(SSE 20 kph)
- 10SM
14:53
Clear
55°F / 13°C 30°F / -1°C 38% 30.12 in
(1020 mb)
SSE 11.5 mph
(SSE 19 kph)
- 10SM
13:53
Clear
55°F / 13°C 36°F / 2°C 47% 30.15 in
(1021 mb)
SSE 10.4 mph
(SSE 17 kph)
- 10SM
12:53
Clear
55°F / 13°C 36°F / 2°C 47% 30.15 in
(1021 mb)
SSE 9.2 mph
(SSE 15 kph)
- 10SM
11:53
Clear
54°F / 12°C 34°F / 1°C 47% 30.15 in
(1021 mb)
Variable 4.6 mph
(Variable 7 kph)
- 10SM
10:53
Overcast
52°F / 11°C 37°F / 3°C 58% 30.15 in
(1021 mb)
S 5.8 mph
(S 9 kph)
- 10SM
09:53
Overcast
52°F / 11°C 37°F / 3°C 58% 30.15 in
(1021 mb)
S 5.8 mph
(S 9 kph)
- 10SM
08:53
Mostly Cloudy
52°F / 11°C 43°F / 6°C 72% 30.15 in
(1021 mb)
SSE 8.1 mph
(SSE 13 kph)
- 10SM
07:53
Clear
48°F / 9°C 43°F / 6°C 82% 30.15 in
(1021 mb)
SSE 8.1 mph
(SSE 13 kph)
- 10SM
06:53
Overcast
46°F / 8°C 41°F / 5°C 82% 30.15 in
(1021 mb)
Calm - 10SM
05:53
Overcast
46°F / 8°C 41°F / 5°C 82% 30.12 in
(1020 mb)
S 3.5 mph
(S 6 kph)
- 10SM
04:53
Mostly Cloudy
46°F / 8°C 43°F / 6°C 87% 30.12 in
(1020 mb)
SSE 5.8 mph
(SSE 9 kph)
- 10SM
04:02
Overcast
46°F / 8°C 43°F / 6°C 87% 30.09 in
(1019 mb)
SSE 5.8 mph
(SSE 9 kph)
- 10SM
03:53
Overcast
46°F / 8°C 43°F / 6°C 87% 30.09 in
(1019 mb)
S 9.2 mph
(S 15 kph)
- 10SM
02:53
Overcast
46°F / 8°C 41°F / 5°C 82% 30.09 in
(1019 mb)
S 4.6 mph
(S 7 kph)
- 10SM
01:53
Overcast
46°F / 8°C 39°F / 4°C 76% 30.09 in
(1019 mb)
Calm - 10SM
00:53
Mostly Cloudy
46°F / 8°C 39°F / 4°C 76% 30.09 in
(1019 mb)
S 4.6 mph
(S 7 kph)
- 10SM
Time Weather Temperature Dewpoint Humidity Pressure Winds Precip Visibility


Weather for websites

WeatherForYou.com, LLC is not responsible for any damages or problems caused by this service. Current weather conditions are obtained from the closest station including government and personal stations which may have varying degrees of accuracy. Weather forecasts are derived from the NOAA NDFD. Like all things, this site belongs to Jesus Christ... He just trusts us to maintain it. If you have any questions or comments email webmaster@weatherforyou.com

Copyright © 2015, WeatherForYou.com LLC. All rights reserved.